Voltar ao catálogo

ATLAS 5 CENTAUR DEB

AtivoHEO
NORAD 44649·DEBRIS·🇺🇸 United States

Lançado Oct 17, 2018 de Cape Canaveral Space Force Station

Loading…

Próximas Passagens (próximas 24 horas)

TLE

AtualizadoSource: Space-Track

Época: Sep 10, 2026, 07:13 UTC

1 44649U 18079K   26253.30112774 -.00000205  00000-0  00000+0 0  9992
2 44649  13.4025  20.0704 4715013 347.9667   3.7145  1.83967341 49971

Acompanhe ATLAS 5 CENTAUR DEB em tempo real com AllMySat

Download on the App Store